1512313200.24,816,3.19,72648.8,-12.57,-14.15,-14.15,0,*6E
1512313201.48,817,3.19,72648.8,-12.57,-14.23,-14.15,0,*6A
1512313202.72,818,3.19,72650.0,-12.53,-14.15,-14.15,0,*64
1512313203.94,819,3.13,72646.8,-12.55,-14.23,-14.15,0,*66
1512313205.15,820,3.19,72648.5,-12.55,-14.23,-14.23,0,*69
1512313206.39,821,3.19,72650.0,-12.57,-14.23,-14.15,0,*6F
1512313207.63,822,3.19,72650.3,-12.57,-14.23,-14.15,0,*6C
1512313208.87,823,3.19,72650.5,-12.57,-14.23,-14.23,0,*68
1512313210.1,824,3.13,72646.8,-12.57,-14.11,-14.15,0,*6B
1512313211.32,825,3.13,72646.5,-12.55,-14.15,-14.11,0,*68
1512313212.57,826,3.13,72650.5,-12.57,-14.01,-14.11,0,*6C
1512313213.86,827,3.13,72648.5,-12.57,-14.01,-14.01,0,*6C
1512313215.15,828,3.19,72654.8,-12.57,-13.97,-13.87,0,*62
1512313216.41,829,3.13,72648.8,-12.57,-14.11,-13.97,0,*6B
1512313217.7,830,3.13,72648.8,-12.57,-14.01,-14.01,0,*6A
1512313218.98,831,3.19,72654.8,-12.57,-13.87,-13.87,0,*6B
1512313220.25,832,3.19,72656.5,-12.57,-13.87,-13.87,0,*68
1512313221.51,833,3.19,72654.3,-12.57,-13.83,-13.73,0,*66
1512313222.8,834,3.13,72654.0,-12.57,-13.83,-13.83,0,*6E
1512313224.05,835,3.19,72658.0,-12.57,-13.83,-13.73,0,*60
1512313225.31,836,3.19,72656.8,-12.57,-13.83,-13.73,0,*63
1512313226.57,837,3.13,72658.3,-12.55,-13.87,-13.83,0,*6B
1512313227.83,838,3.13,72654.5,-12.55,-13.97,-13.83,0,*65
1512313229.1,839,3.19,72654.3,-12.55,-13.97,-13.97,0,*61
1512313230.36,840,3.19,72648.0,-12.55,-14.01,-14.01,0,*6F
1512313231.63,841,3.19,72644.3,-12.55,-14.01,-13.97,0,*66
1512313232.9,842,3.19,72646.5,-12.55,-14.01,-13.97,0,*65
1512313234.14,843,3.19,72644.0,-12.55,-14.15,-14.01,0,*69
1512313235.44,844,3.19,72648.0,-12.57,-14.01,-13.97,0,*61
1512313236.68,845,3.19,72644.8,-12.57,-14.15,-14.15,0,*68
1512313237.91,846,3.19,72646.3,-12.57,-14.15,-14.11,0,*6F
1512313239.17,847,3.19,72644.8,-12.57,-14.01,-14.11,0,*6B
1512313240.41,848,3.19,72640.0,-12.57,-14.15,-14.15,0,*65
1512313241.65,849,3.19,72644.0,-12.57,-14.15,-14.15,0,*64
1512313242.89,850,3.13,72644.5,-12.57,-14.15,-14.15,0,*6C
1512313244.13,851,3.13,72644.3,-12.57,-14.23,-14.15,0,*68
1512313245.4,852,3.19,72646.8,-12.57,-14.15,-14.01,0,*6B
1512313246.67,853,3.19,72646.8,-12.59,-14.05,-14.01,0,*65
1512313247.9,854,3.19,72646.5,-12.59,-14.01,-13.93,0,*6A
1512313249.17,855,3.19,72644.8,-12.59,-14.01,-14.01,0,*67
1512313250.47,856,3.19,72646.0,-12.57,-13.97,-13.97,0,*6A
1512313251.76,857,3.13,72646.5,-12.57,-13.97,-13.97,0,*6B
1512313253.02,858,3.19,72646.8,-12.57,-14.11,-14.01,0,*65
1512313254.25,859,3.19,72646.0,-12.57,-14.11,-14.11,0,*65
1512313255.54,860,3.19,72644.8,-12.57,-14.01,-14.01,0,*6F
1512313256.78,861,3.19,72650.8,-12.59,-14.15,-14.05,0,*61
1512313258.05,862,3.19,72648.5,-12.57,-14.11,-14.01,0,*6C
1512313259.33,863,3.19,72648.5,-12.57,-13.97,-13.87,0,*6D
1512313260.62,864,3.19,72648.5,-12.57,-13.97,-14.01,0,*63
1512313261.9,865,3.19,72648.0,-12.57,-13.87,-13.87,0,*6A
1512313263.18,866,3.13,72646.0,-12.57,-13.97,-13.87,0,*68
1512313264.46,867,3.19,72646.8,-12.57,-13.87,-13.87,0,*68
1512313265.66,868,3.19,72648.0,-12.59,-13.93,-13.93,0,*69
1512313266.94,869,3.19,72648.8,-12.57,-13.87,-13.97,0,*67
1512313268.23,870,3.19,72650.0,-12.57,-13.97,-13.87,0,*6F
1512313269.5,871,3.19,72650.3,-12.57,-13.87,-13.87,0,*6F
1512313270.71,872,3.13,72646.3,-12.59,-13.93,-13.93,0,*62
1512313271.99,873,3.13,72646.5,-12.57,-13.97,-13.83,0,*68
1512313273.27,874,3.19,72648.0,-12.57,-13.87,-13.87,0,*6A
1512313274.55,875,3.19,72650.3,-12.57,-13.97,-13.87,0,*6A
1512313275.84,876,3.19,72646.5,-12.57,-13.97,-14.01,0,*60
1512313277.11,877,3.19,72650.5,-12.55,-13.97,-13.97,0,*6B
1512313278.39,878,3.19,72650.3,-12.57,-13.97,-13.87,0,*67
1512313279.67,879,3.19,72652.5,-12.57,-13.87,-13.83,0,*63
1512313280.95,880,3.19,72652.5,-12.57,-13.87,-13.87,0,*61
1512313282.18,881,3.19,72654.3,-12.55,-13.97,-13.73,0,*68
1512313283.46,882,3.19,72648.8,-12.57,-13.87,-13.83,0,*67
1512313284.74,883,3.19,72650.3,-12.57,-13.87,-13.83,0,*66
1512313286.02,884,3.13,72652.5,-12.57,-13.97,-13.87,0,*64
1512313287.3,885,3.19,72652.3,-12.57,-13.87,-13.83,0,*60
1512313288.57,886,3.19,72654.3,-12.57,-13.87,-13.87,0,*67
1512313289.83,887,3.19,72656.8,-12.57,-13.87,-13.73,0,*6D
1512313291.08,888,3.13,72654.0,-12.57,-13.83,-13.73,0,*66
1512313292.34,889,3.13,72654.3,-12.57,-13.83,-13.73,0,*67
1512313293.6,890,3.19,72658.5,-12.55,-13.83,-13.83,0,*62
1512313294.83,891,3.19,72658.8,-12.55,-13.87,-13.73,0,*68
1512313296.06,892,3.19,72658.3,-12.55,-13.87,-13.73,0,*6B
1512313297.32,893,3.19,72658.5,-12.55,-13.83,-13.83,0,*61
1512313298.58,894,3.19,72658.0,-12.55,-13.87,-13.87,0,*66
1512313299.84,895,3.19,72652.5,-12.55,-13.97,-13.87,0,*66
1512313301.09,896,3.13,72648.8,-12.55,-13.87,-13.87,0,*64
1512313302.35,897,3.19,72652.8,-12.53,-13.83,-13.73,0,*6C
1512313303.59,898,3.19,72648.0,-12.55,-13.83,-13.73,0,*65
1512313304.85,899,3.19,72648.8,-12.55,-13.83,-13.87,0,*6F
1512313306.1,900,3.19,72650.3,-12.55,-13.87,-13.83,0,*6E
1512313307.39,901,3.19,72646.0,-12.57,-13.97,-13.87,0,*68
1512313308.65,902,3.13,72642.0,-12.55,-14.01,-13.87,0,*61
1512313309.91,903,3.19,72642.3,-12.55,-14.01,-13.97,0,*61
1512313311.2,904,3.19,72640.8,-12.57,-13.97,-13.97,0,*6C
1512313312.5,905,3.19,72636.5,-12.57,-14.01,-13.97,0,*65
1512313313.75,906,3.13,72636.3,-12.55,-13.87,-13.87,0,*6C
1512313315.0,907,3.13,72640.0,-12.55,-13.87,-13.87,0,*6D
1512313316.27,908,3.13,72640.3,-12.55,-14.01,-14.01,0,*62
1512313317.48,909,3.19,72646.0,-12.55,-14.15,-14.11,0,*67
1512313318.7,910,3.19,72642.0,-12.55,-14.15,-14.15,0,*6B
1512313319.92,911,3.19,72640.3,-12.55,-14.15,-14.15,0,*6A
1512313321.16,912,3.13,72638.0,-12.57,-14.23,-14.15,0,*6E
1512313322.4,913,3.19,72642.8,-12.57,-14.15,-14.15,0,*6A
1512313323.64,914,3.19,72644.3,-12.57,-14.23,-14.15,0,*68
1512313324.87,915,3.19,72640.5,-12.57,-14.11,-14.15,0,*68
1512313326.11,916,3.13,72638.8,-12.57,-14.23,-14.15,0,*6A
1512313327.34,917,3.13,72640.0,-12.57,-14.11,-14.11,0,*6E
1512313328.55,918,3.19,72642.3,-12.59,-14.29,-14.19,0,*6C
1512313329.76,919,3.13,72636.8,-12.59,-14.29,-14.15,0,*61
1512313330.98,920,3.13,72638.5,-12.59,-14.19,-14.19,0,*64
1512313332.22,921,3.13,72642.0,-12.57,-14.15,-14.15,0,*6B
1512313333.43,922,3.19,72644.0,-12.59,-14.29,-14.15,0,*69
1512313334.68,923,3.19,72644.3,-12.59,-14.15,-14.05,0,*66
1512313335.94,924,3.19,72646.5,-12.57,-14.11,-14.01,0,*6F
1512313337.2,925,3.19,72646.0,-12.57,-14.01,-13.93,0,*63
1512313338.49,926,3.19,72648.5,-12.57,-14.01,-13.97,0,*64
1512313339.76,927,3.19,72648.5,-12.59,-14.01,-14.01,0,*63
1512313341.03,928,3.19,72648.5,-12.59,-14.01,-14.01,0,*6C
1512313342.32,929,3.13,72642.0,-12.57,-14.01,-13.97,0,*6B
1512313343.55,930,3.19,72646.3,-12.59,-14.05,-13.93,0,*6D
1512313344.83,931,3.13,72642.0,-12.57,-13.87,-13.87,0,*6A
1512313346.11,932,3.19,72646.0,-12.57,-13.97,-13.87,0,*68
1512313347.32,933,3.13,72640.8,-12.59,-14.29,-14.19,0,*65
1512313348.54,934,3.19,72640.0,-12.59,-14.19,-14.19,0,*61
1512313349.75,935,3.19,72640.8,-12.59,-14.29,-14.29,0,*60
1512313350.96,936,3.19,72644.3,-12.59,-14.29,-14.29,0,*63
1512313352.17,937,3.19,72644.5,-12.59,-14.19,-14.19,0,*62
1512313353.39,938,3.13,72642.5,-12.59,-14.15,-14.15,0,*6D
1512313354.67,939,3.19,72648.8,-12.57,-14.01,-13.87,0,*6B
1512313355.94,940,3.19,72650.5,-12.59,-14.05,-14.01,0,*66
1512313357.18,941,3.19,72652.3,-12.59,-13.93,-14.01,0,*6F
1512313358.46,942,3.19,72652.5,-12.57,-13.97,-13.87,0,*6F
1512313359.69,943,3.19,72650.5,-12.59,-13.93,-13.87,0,*64
1512313360.92,944,3.19,72652.8,-12.59,-13.93,-13.87,0,*63
1512313362.16,945,3.19,72648.5,-12.59,-14.01,-13.93,0,*6B
1512313363.43,946,3.19,72650.0,-12.57,-13.87,-13.87,0,*6A
1512313364.69,947,3.13,72648.0,-12.59,-14.01,-13.87,0,*6C
1512313365.98,948,3.13,72650.0,-12.57,-13.97,-13.97,0,*64
1512313367.27,949,3.19,72650.8,-12.57,-14.01,-13.87,0,*6C
1512313368.5,950,3.13,72646.8,-12.59,-13.93,-14.01,0,*6F
1512313369.74,951,3.19,72648.8,-12.59,-14.05,-13.93,0,*6A
1512313371.01,952,3.13,72642.0,-12.57,-13.87,-13.87,0,*6F
1512313372.24,953,3.19,72646.3,-12.59,-14.15,-14.15,0,*60
1512313373.47,954,3.19,72640.8,-12.57,-14.15,-14.11,0,*6D
1512313374.69,955,3.19,72642.3,-12.59,-14.19,-14.19,0,*66
1512313375.92,956,3.13,72636.3,-12.57,-14.11,-14.11,0,*6B
1512313377.15,957,3.19,72640.8,-12.57,-14.15,-14.11,0,*6E
1512313378.36,958,3.19,72638.0,-12.59,-14.29,-14.19,0,*68
1512313379.58,959,3.13,72638.0,-12.59,-14.15,-14.15,0,*6A
1512313380.83,960,3.19,72640.3,-12.63,-14.15,-14.05,0,*68
1512313382.05,961,3.19,72644.0,-12.59,-14.15,-14.29,0,*6E
1512313383.28,962,3.19,72646.3,-12.57,-14.15,-14.11,0,*68
1512313384.55,963,3.19,72638.5,-12.59,-14.05,-14.05,0,*63
1512313385.81,964,3.19,72634.3,-12.59,-14.05,-14.05,0,*64
1512313387.03,965,3.19,72642.8,-12.59,-14.29,-14.15,0,*6A
1512313388.26,966,3.13,72636.5,-12.57,-14.23,-14.11,0,*69
1512313389.5,967,3.19,72642.3,-12.59,-14.19,-14.05,0,*6A
1512313390.73,968,3.19,72638.8,-12.57,-14.23,-14.11,0,*67
1512313391.95,969,3.13,72640.8,-12.59,-14.15,-14.15,0,*69
1512313393.24,970,3.19,72640.5,-12.57,-14.01,-14.01,0,*6F
1512313394.51,971,3.19,72642.5,-12.59,-14.01,-14.01,0,*60
1512313395.76,972,3.19,72644.5,-12.59,-14.15,-14.01,0,*66
1512313397.0,973,3.19,72644.0,-12.59,-14.15,-14.05,0,*63
1512313398.29,974,3.19,72646.5,-12.57,-14.01,-14.01,0,*6B
1512313399.56,975,3.19,72644.0,-12.57,-14.11,-14.01,0,*6B
1512313400.84,976,3.19,72644.3,-12.57,-14.01,-13.87,0,*60
1512313402.12,977,3.19,72640.8,-12.57,-14.01,-13.87,0,*61
1512313403.41,978,3.19,72640.5,-12.57,-14.01,-13.97,0,*6F
1512313404.68,979,3.13,72642.5,-12.59,-14.01,-14.01,0,*68
1512313405.92,980,3.19,72640.8,-12.59,-13.93,-14.01,0,*62
1512313407.15,981,3.19,72640.5,-12.59,-14.01,-13.93,0,*63
1512313408.36,982,3.19,72640.3,-12.59,-13.93,-13.93,0,*6C
1512313409.62,983,3.19,72642.0,-12.59,-14.05,-14.01,0,*69
1512313410.89,984,3.19,72644.3,-12.59,-14.05,-14.01,0,*6E
1512313412.16,985,3.19,72640.5,-12.59,-14.05,-14.05,0,*6B
1512313413.43,986,3.19,72642.5,-12.59,-14.05,-14.05,0,*68
1512313414.7,987,3.19,72642.3,-12.59,-14.01,-14.01,0,*69
1512313415.97,988,3.19,72642.5,-12.59,-14.01,-14.01,0,*66
1512313417.17,989,3.19,72642.8,-12.59,-13.93,-13.93,0,*67
1512313418.37,990,3.19,72642.0,-12.59,-13.93,-13.93,0,*6F
1512313419.6,991,3.19,72642.3,-12.59,-13.93,-13.87,0,*6B
1512313420.83,992,3.19,72644.5,-12.59,-14.01,-13.93,0,*61
1512313422.09,993,3.19,72640.3,-12.59,-14.01,-13.79,0,*64
1512313423.35,994,3.19,72642.3,-12.59,-13.87,-13.87,0,*6B
1512313424.61,995,3.19,72640.3,-12.59,-14.01,-13.87,0,*63
1512313425.84,996,3.19,72644.5,-12.59,-13.93,-13.87,0,*6C
1512313427.12,997,3.19,72644.8,-12.57,-13.87,-13.87,0,*66
1512313428.32,998,3.19,72642.5,-12.59,-13.93,-13.93,0,*67
1512313429.6,999,3.19,72636.8,-12.57,-13.83,-13.83,0,*68
1512313430.9,1000,3.13,72638.3,-12.57,-13.97,-13.97,0,*50
1512313432.15,1001,3.19,72636.3,-12.59,-14.15,-14.05,0,*5E
1512313433.4,1002,3.19,72634.0,-12.59,-14.15,-14.05,0,*5D
1512313434.65,1003,3.13,72632.5,-12.59,-14.15,-14.05,0,*5C
1512313435.9,1004,3.19,72632.8,-12.59,-14.05,-14.15,0,*5B
1512313437.14,1005,3.19,72638.5,-12.59,-14.05,-14.15,0,*5A
1512313438.4,1006,3.19,72638.3,-12.59,-14.15,-14.01,0,*5D
1512313439.64,1007,3.19,72636.8,-12.59,-14.01,-13.93,0,*55
1512313440.87,1008,3.19,72640.5,-12.59,-13.93,-13.87,0,*53
1512313442.16,1009,3.19,72642.3,-12.57,-13.97,-13.87,0,*58
1512313443.39,1010,3.19,72640.3,-12.59,-13.93,-13.87,0,*5A
1512313444.66,1011,3.19,72638.5,-12.59,-13.87,-13.87,0,*5E
1512313445.93,1012,3.19,72638.3,-12.59,-14.01,-14.01,0,*5D
1512313447.2,1013,3.19,72640.5,-12.59,-14.05,-14.05,0,*5C
1512313448.48,1014,3.19,72644.0,-12.59,-14.05,-14.05,0,*5B
1512313449.71,1015,3.19,72640.8,-12.57,-14.11,-14.11,0,*54
1512313450.94,1016,3.19,72636.5,-12.59,-14.19,-14.15,0,*55
1512313452.23,1017,3.19,72638.3,-12.57,-13.97,-14.01,0,*5E
1512313453.46,1018,3.19,72640.8,-12.59,-14.15,-14.15,0,*57
1512313454.71,1019,3.19,72640.3,-12.59,-14.15,-14.05,0,*57
1512313455.98,1020,3.19,72642.3,-12.59,-14.05,-14.01,0,*58
1512313457.27,1021,3.13,72634.5,-12.57,-13.87,-13.87,0,*53
1512313458.51,1022,3.19,72642.0,-12.59,-14.01,-13.93,0,*52
1512313459.78,1023,3.19,72640.5,-12.59,-14.05,-14.01,0,*5B
1512313461.06,1024,3.19,72638.3,-12.59,-14.05,-14.05,0,*58
1512313462.3,1025,3.19,72636.8,-12.59,-14.05,-13.93,0,*51
1512313463.57,1026,3.19,72638.5,-12.59,-14.05,-14.01,0,*5E
1512313464.85,1027,3.19,72640.0,-12.59,-14.01,-14.01,0,*5B
1512313466.14,1028,3.19,72640.3,-12.57,-14.01,-13.97,0,*52
1512313467.38,1029,3.19,72640.5,-12.59,-14.01,-13.93,0,*59
1512313468.66,1030,3.19,72644.0,-12.59,-14.01,-14.01,0,*5D
1512313469.96,1031,3.19,72640.5,-12.57,-13.83,-13.97,0,*57
1512313471.16,1032,3.19,72642.5,-12.59,-13.93,-13.93,0,*5F
1512313472.4,1033,3.19,72644.8,-12.59,-13.87,-13.93,0,*5B
1512313473.6,1034,3.19,72646.3,-12.59,-13.93,-13.93,0,*59
1512313474.84,1035,3.19,72642.5,-12.59,-13.93,-13.87,0,*5D
1512313476.07,1036,3.19,72646.3,-12.59,-13.93,-13.79,0,*5F
1512313477.3,1037,3.19,72646.0,-12.59,-13.93,-13.87,0,*5F
1512313478.56,1038,3.19,72646.8,-12.59,-13.87,-13.79,0,*54
1512313479.83,1039,3.19,72648.0,-12.59,-14.01,-13.87,0,*5D
1512313481.06,1040,3.19,72650.3,-12.59,-13.93,-13.87,0,*5F
1512313482.32,1041,3.19,72646.5,-12.59,-13.87,-13.79,0,*5A
1512313483.56,1042,3.19,72650.3,-12.59,-13.79,-13.73,0,*52
1512313484.79,1043,3.19,72652.8,-12.57,-13.73,-13.69,0,*5C
1512313486.03,1044,3.19,72652.3,-12.59,-13.87,-13.73,0,*55
1512313487.29,1045,3.19,72644.3,-12.57,-13.83,-13.73,0,*5E
1512313488.52,1046,3.19,72646.8,-12.57,-13.73,-13.73,0,*52
1512313489.81,1047,3.19,72646.3,-12.57,-13.83,-13.83,0,*53
1512313491.1,1048,3.19,72646.5,-12.57,-13.87,-13.83,0,*58
1512313492.35,1049,3.19,72644.5,-12.57,-13.87,-13.73,0,*56
1512313493.64,1050,3.19,72642.5,-12.57,-13.87,-13.83,0,*51
1512313494.92,1051,3.19,72648.3,-12.57,-13.87,-13.83,0,*50
1512313496.18,1052,3.19,72646.0,-12.57,-13.87,-13.73,0,*5C
1512313497.47,1053,3.13,72644.0,-12.57,-13.83,-13.83,0,*56
1512313498.76,1054,3.13,72644.3,-12.57,-13.83,-13.83,0,*51
1512313500.02,1055,3.19,72648.8,-12.57,-13.83,-13.73,0,*5F
1512313501.25,1056,3.19,72644.0,-12.57,-13.73,-13.73,0,*53
1512313502.48,1057,3.19,72648.8,-12.57,-13.73,-13.69,0,*59
1512313503.72,1058,3.19,72648.3,-12.57,-13.73,-13.69,0,*56
1512313504.95,1059,3.19,72650.8,-12.55,-13.61,-13.69,0,*56
1512313506.19,1060,3.19,72652.0,-12.59,-13.79,-13.73,0,*52
1512313507.47,1061,3.19,72654.0,-12.57,-13.83,-13.83,0,*57
1512313508.71,1062,3.19,72648.5,-12.57,-13.73,-13.73,0,*54
1512313509.97,1063,3.13,72650.8,-12.59,-13.79,-13.79,0,*5B
1512313511.2,1064,3.19,72654.8,-12.57,-13.73,-13.69,0,*59
1512313512.41,1065,3.19,72648.0,-12.55,-13.73,-13.73,0,*51
1512313513.62,1066,3.19,72650.3,-12.55,-13.73,-13.73,0,*52
1512313514.83,1067,3.19,72652.5,-12.55,-13.73,-13.69,0,*58
1512313516.06,1068,3.19,72650.5,-12.57,-13.73,-13.73,0,*5E
1512313517.29,1069,3.19,72654.3,-12.57,-13.73,-13.69,0,*54
1512313518.5,1070,3.19,72656.5,-12.55,-13.73,-13.69,0,*5E
1512313519.71,1071,3.19,72650.5,-12.55,-13.69,-13.69,0,*54
1512313520.97,1072,3.19,72648.5,-12.55,-13.87,-13.83,0,*53
1512313522.25,1073,3.19,72648.3,-12.53,-13.87,-13.83,0,*54
1512313523.5,1074,3.19,72646.3,-12.55,-13.83,-13.73,0,*5E
1512313524.76,1075,3.19,72648.0,-12.55,-13.83,-13.83,0,*50
1512313526.05,1076,3.19,72644.8,-12.53,-13.83,-13.83,0,*55
1512313527.32,1077,3.19,72650.8,-12.55,-13.83,-13.83,0,*52
1512313528.58,1078,3.19,72648.5,-12.55,-13.87,-13.83,0,*59
1512313529.86,1079,3.19,72648.5,-12.53,-13.87,-13.87,0,*5A
1512313531.12,1080,3.19,72644.5,-12.55,-13.87,-13.83,0,*5E
1512313532.38,1081,3.19,72646.8,-12.55,-13.87,-13.87,0,*5B
1512313533.67,1082,3.19,72646.8,-12.53,-13.87,-13.87,0,*5E
1512313534.93,1083,3.19,72646.8,-12.55,-13.87,-13.87,0,*59
1512313536.2,1084,3.13,72642.8,-12.55,-13.97,-13.97,0,*5E
1512313537.47,1085,3.19,72646.0,-12.55,-14.01,-13.87,0,*56
1512313538.75,1086,3.19,72650.5,-12.53,-13.87,-13.87,0,*5A
1512313539.99,1087,3.19,72650.5,-12.55,-13.83,-13.73,0,*52
1512313541.24,1088,3.19,72650.8,-12.55,-13.83,-13.73,0,*5D
1512313542.5,1089,3.19,72650.0,-12.55,-13.83,-13.83,0,*53
1512313543.74,1090,3.19,72648.3,-12.55,-13.83,-13.73,0,*54
1512313545.01,1091,3.19,72650.8,-12.55,-13.83,-13.83,0,*5A
1512313546.28,1092,3.19,72652.3,-12.55,-13.83,-13.83,0,*59
1512313547.54,1093,3.19,72654.3,-12.55,-13.83,-13.83,0,*58
1512313548.78,1094,3.19,72650.3,-12.55,-13.83,-13.73,0,*50
1512313550.02,1095,3.19,72650.0,-12.55,-13.73,-13.83,0,*51
1512313551.26,1096,3.19,72650.3,-12.55,-13.83,-13.73,0,*52
1512313552.5,1097,3.19,72652.5,-12.55,-13.83,-13.73,0,*53
1512313553.74,1098,3.19,72654.0,-12.53,-13.73,-13.73,0,*55
1512313554.97,1099,3.19,72652.5,-12.53,-13.73,-13.73,0,*54
1512313556.24,1100,3.19,72654.8,-12.55,-13.83,-13.83,0,*53
1512313557.48,1101,3.19,72648.3,-12.53,-13.73,-13.73,0,*54
1512313558.71,1102,3.19,72650.5,-12.53,-13.73,-13.73,0,*57
1512313559.95,1103,3.19,72654.5,-12.53,-13.73,-13.69,0,*5D
1512313561.18,1104,3.19,72650.5,-12.53,-13.73,-13.69,0,*5A
1512313562.42,1105,3.19,72650.5,-12.53,-13.73,-13.73,0,*50
1512313563.63,1106,3.19,72648.3,-12.55,-13.73,-13.73,0,*55
1512313564.87,1107,3.19,72644.5,-12.53,-13.73,-13.73,0,*52
1512313566.1,1108,3.19,72646.0,-12.53,-13.73,-13.73,0,*5D
1512313567.36,1109,3.19,72644.0,-12.55,-13.87,-13.87,0,*5A
1512313568.64,1110,3.19,72644.3,-12.55,-13.97,-13.97,0,*52
1512313569.91,1111,3.19,72642.3,-12.55,-14.01,-14.01,0,*53
1512313571.2,1112,3.19,72644.0,-12.53,-13.87,-14.01,0,*5F
1512313572.47,1113,3.19,72642.8,-12.55,-13.87,-13.97,0,*50
1512313573.77,1114,3.19,72646.5,-12.53,-14.01,-13.97,0,*58
1512313575.07,1115,3.19,72642.5,-12.53,-14.01,-13.97,0,*59
1512313576.37,1116,3.19,72642.5,-12.53,-13.97,-13.97,0,*52
1512313577.66,1117,3.19,72644.5,-12.53,-13.87,-13.87,0,*53
1512313578.94,1118,3.19,72646.3,-12.53,-13.87,-13.87,0,*5C
1512313580.23,1119,3.19,72648.3,-12.53,-13.97,-13.87,0,*5C
1512313581.5,1120,3.19,72646.5,-12.55,-13.97,-13.87,0,*50
1512313582.79,1121,3.19,72648.3,-12.53,-13.87,-13.97,0,*57
1512313584.05,1122,3.19,72646.8,-12.55,-13.87,-13.83,0,*57
1512313585.34,1123,3.19,72646.8,-12.53,-13.97,-13.87,0,*55
1512313586.64,1124,3.19,72646.0,-12.53,-13.97,-13.87,0,*52
1512313587.9,1125,3.19,72644.8,-12.55,-13.83,-13.83,0,*54
1512313589.14,1126,3.19,72648.0,-12.55,-13.73,-13.83,0,*58
1512313590.43,1127,3.19,72650.8,-12.53,-13.83,-13.83,0,*50
1512313591.72,1128,3.19,72650.0,-12.53,-13.97,-13.87,0,*5E
1512313592.98,1129,3.19,72648.8,-12.55,-13.87,-13.87,0,*58
1512313594.26,1130,3.19,72650.0,-12.53,-13.87,-13.87,0,*56
1512313595.53,1131,3.19,72648.8,-12.55,-13.97,-13.87,0,*50
1512313596.82,1132,3.19,72648.0,-12.53,-13.83,-13.87,0,*50
1512313598.06,1133,3.19,72654.3,-12.55,-13.83,-13.73,0,*5C
1512313599.33,1134,3.19,72650.0,-12.55,-13.83,-13.87,0,*50
1512313600.57,1135,3.19,72648.8,-12.55,-13.87,-13.73,0,*5E
1512313601.85,1136,3.19,72652.3,-12.53,-13.87,-13.83,0,*54
1512313603.12,1137,3.19,72654.3,-12.53,-13.83,-13.73,0,*5E
1512313604.33,1138,3.19,72652.0,-12.55,-13.73,-13.73,0,*58
1512313605.57,1139,3.19,72654.5,-12.55,-13.83,-13.73,0,*56
1512313606.81,1140,3.19,72654.5,-12.55,-13.87,-13.73,0,*5C
1512313608.1,1141,3.19,72654.3,-12.53,-13.83,-13.83,0,*50
1512313609.37,1142,3.19,72652.3,-12.53,-13.83,-13.73,0,*5C
1512313610.66,1143,3.19,72650.5,-12.53,-13.83,-13.83,0,*52
1512313611.92,1144,3.19,72646.8,-12.55,-13.87,-13.87,0,*53
1512313613.19,1145,3.19,72644.3,-12.55,-14.01,-14.01,0,*52
1512313614.48,1146,3.19,72638.0,-12.53,-13.87,-13.97,0,*56
1512313615.76,1147,3.19,72640.8,-12.55,-13.97,-13.97,0,*50
1512313617.0,1148,3.19,72642.5,-12.55,-14.11,-14.01,0,*5E
1512313618.28,1149,3.19,72644.3,-12.53,-14.11,-13.97,0,*51
1512313619.54,1150,3.19,72646.5,-12.53,-14.01,-14.11,0,*51
1512313620.76,1151,3.19,72640.0,-12.55,-14.11,-14.11,0,*57
1512313622.05,1152,3.19,72638.8,-12.53,-13.97,-13.87,0,*53
1512313623.32,1153,3.19,72642.3,-12.55,-14.01,-14.01,0,*55
1512313624.62,1154,3.19,72640.0,-12.53,-14.01,-14.01,0,*54
1512313625.91,1155,3.19,72642.3,-12.53,-14.01,-13.87,0,*5C
1512313627.19,1156,3.19,72640.8,-12.55,-14.01,-14.01,0,*50
1512313628.46,1157,3.19,72640.5,-12.55,-14.01,-14.01,0,*51
1512313629.72,1158,3.19,72644.0,-12.55,-13.97,-13.87,0,*5F
1512313630.98,1159,3.19,72644.5,-12.55,-13.87,-13.87,0,*5F
1512313632.26,1160,3.19,72638.8,-12.55,-13.97,-13.97,0,*55
1512313633.55,1161,3.19,72636.8,-12.57,-13.97,-13.97,0,*56
1512313634.83,1162,3.19,72644.5,-12.55,-13.97,-13.97,0,*57
1512313636.07,1163,3.19,72642.3,-12.55,-14.01,-14.11,0,*57
1512313637.34,1164,3.19,72642.5,-12.55,-14.01,-13.97,0,*59
1512313638.62,1165,3.19,72644.5,-12.55,-13.97,-13.97,0,*50
1512313639.89,1166,3.19,72646.5,-12.59,-14.01,-14.01,0,*5F
1512313641.1,1167,3.19,72644.5,-12.59,-13.93,-13.93,0,*5E
1512313642.39,1168,3.19,72644.5,-12.57,-13.87,-13.97,0,*5E
1512313643.68,1169,3.19,72648.5,-12.57,-14.01,-13.97,0,*56
1512313644.96,1170,3.19,72648.3,-12.55,-14.01,-13.97,0,*5C
1512313646.23,1171,3.19,72648.0,-12.59,-14.01,-14.01,0,*59
1512313647.53,1172,3.19,72648.5,-12.57,-14.01,-13.97,0,*5C
1512313648.82,1173,3.19,72648.0,-12.57,-14.01,-13.87,0,*5C
1512313650.11,1174,3.19,72644.8,-12.57,-14.01,-13.87,0,*5B
1512313651.4,1175,3.19,72644.5,-12.57,-13.97,-13.87,0,*52
1512313652.69,1176,3.19,72638.8,-12.57,-14.01,-14.01,0,*50
1512313653.91,1177,3.19,72636.0,-12.59,-14.19,-14.19,0,*5F
1512313655.16,1178,3.19,72642.3,-12.59,-14.19,-14.05,0,*5D
1512313656.46,1179,3.19,72640.0,-12.57,-14.01,-14.01,0,*5F
1512313657.72,1180,3.19,72638.3,-12.57,-14.11,-13.97,0,*50
1512313659.01,1181,3.19,72640.3,-12.57,-14.01,-13.87,0,*51
1512313660.29,1182,3.19,72640.3,-12.59,-14.05,-14.05,0,*55
1512313661.53,1183,3.19,72640.5,-12.57,-14.11,-14.15,0,*5E
1512313662.76,1184,3.19,72642.3,-12.57,-14.11,-14.11,0,*5D
1512313663.99,1185,3.13,72638.5,-12.59,-14.19,-14.29,0,*51
1512313665.23,1186,3.19,72636.8,-12.57,-14.15,-14.23,0,*5A
1512313666.45,1187,3.19,72636.8,-12.59,-14.29,-14.19,0,*53
1512313667.7,1188,3.19,72640.8,-12.59,-14.15,-14.05,0,*5E
1512313668.94,1189,3.19,72638.0,-12.57,-14.15,-14.11,0,*54
1512313670.21,1190,3.19,72642.8,-12.59,-14.05,-14.05,0,*56
1512313671.45,1191,3.19,72640.3,-12.59,-14.01,-13.93,0,*5B
1512313672.73,1192,3.19,72642.3,-12.59,-14.05,-14.01,0,*50
1512313674.0,1193,3.19,72642.5,-12.59,-14.05,-14.01,0,*51
1512313675.21,1194,3.19,72640.8,-12.63,-13.93,-13.93,0,*5B
1512313676.47,1195,3.19,72644.0,-12.57,-13.97,-13.93,0,*59
1512313677.75,1196,3.19,72636.8,-12.63,-14.01,-14.01,0,*59
1512313679.02,1197,3.19,72642.0,-12.63,-14.01,-13.87,0,*51
1512313680.23,1198,3.19,72636.8,-12.59,-13.93,-13.93,0,*5E
1512313681.5,1199,3.19,72642.0,-12.59,-14.05,-14.01,0,*5B
1512313682.77,1200,3.19,72642.3,-12.59,-14.05,-14.05,0,*5C
1512313684.05,1201,3.19,72640.8,-12.59,-14.05,-14.05,0,*5D
1512313685.29,1202,3.19,72640.3,-12.63,-13.93,-14.01,0,*5B
1512313686.56,1203,3.19,72646.0,-12.63,-14.01,-14.01,0,*56
1512313687.81,1204,3.19,72646.0,-12.63,-14.15,-14.05,0,*50
1512313689.07,1205,3.19,72640.5,-12.63,-14.15,-14.05,0,*51
1512313690.34,1206,3.19,72640.0,-12.63,-14.05,-14.01,0,*57
1512313691.62,1207,3.13,72638.5,-12.63,-14.01,-14.01,0,*52
1512313692.86,1208,3.19,72636.0,-12.63,-13.93,-14.01,0,*51
1512313694.14,1209,3.19,72636.8,-12.63,-14.01,-14.01,0,*5C
1512313695.41,1210,3.19,72636.3,-12.63,-14.01,-14.05,0,*50
1512313696.69,1211,3.19,72642.0,-12.59,-14.01,-14.01,0,*5C
1512313697.96,1212,3.19,72640.0,-12.59,-14.05,-14.05,0,*5F
1512313699.18,1213,3.19,72644.0,-12.59,-14.15,-14.15,0,*5E
1512313700.41,1214,3.19,72642.0,-12.63,-14.15,-14.15,0,*50
1512313701.66,1215,3.19,72646.3,-12.63,-14.05,-14.15,0,*50
1512313702.94,1216,3.19,72646.0,-12.63,-14.05,-14.01,0,*56
1512313704.22,1217,3.19,72646.3,-12.63,-14.01,-14.01,0,*53
1512313705.47,1218,3.19,72642.5,-12.63,-14.15,-14.01,0,*59
1512313706.71,1219,3.19,72638.8,-12.63,-14.01,-13.93,0,*51
1512313707.98,1220,3.19,72642.0,-12.63,-14.05,-14.05,0,*57
1512313709.26,1221,3.19,72636.5,-12.63,-14.05,-14.05,0,*56
1512313710.51,1222,3.19,72640.0,-12.63,-14.05,-14.15,0,*54
1512313711.78,1223,3.19,72638.8,-12.63,-14.05,-14.05,0,*54
1512313713.01,1224,3.19,72636.3,-12.63,-14.15,-14.15,0,*53
1512313714.23,1225,3.19,72638.8,-12.63,-14.23,-14.19,0,*5B